RH
36 35 30 45 51 45 34 59 89 100 100 98 98 94 81 47 66 61 73 23 18 15 15 20 23 28 37 67 100 71 99 65 48 39 100 77 60 79 68 53 50 47 52 68 54 46 40 35 28
40 44 38 30 30 32 50 63 98 100 100 100 100 100 87 55 99 62 27 22 18 17 16 22 28 33 37 49 100 99 96 79 60 98 100 100 96 87 57 47 41 39 49 57 60 55 46 42 33
52 42 32 37 55 60 44 36 57 86 100 66 100 100 96 52 100 67 23 26 19 19 18 31 33 32 53 86 100 100 100 100 100 100 81 72 65 49 42 36 33 31 33 50 65 72 69 57 39
33 35 41 46 46 52 44 36 33 77 75 68 100 100 60 88 80 29 27 26 23 19 19 25 42 45 43 100 94 100 98 100 92 92 85 62 69 59 42 42 37 38 46 38 54 62 57 51 51
28 36 35 56 50 48 38 32 30 37 44 100 100 65 82 96 37 28 34 28 26 24 18 21 30 39 58 78 100 100 100 77 88 96 74 88 68 57 50 53 56 73 57 47 47 61 70 60 52
34 31 40 39 48 41 37 32 23 23 86 96 100 88 99 48 36 51 45 29 27 26 26 25 35 42 49 76 69 62 85 70 62 95 100 100 78 65 56 85 98 75 76 64 53 53 58 66 63
25 26 34 38 38 36 32 26 21 30 99 91 96 100 58 36 61 72 58 37 31 28 27 32 33 46 48 72 97 100 73 92 100 96 74 64 91 97 100 100 75 98 87 68 74 56 52 55 66
27 27 35 40 44 32 28 24 23 99 100 100 100 58 41 51 77 74 54 45 34 33 32 34 37 32 39 43 47 49 55 57 77 90 92 100 100 100 100 100 97 69 69 71 65 51 59 52 56
64 74 56 66 48 30 28 25 33 44 56 57 58 54 67 57 85 85 70 53 48 41 44 43 42 40 42 44 39 33 31 36 44 41 40 44 59 77 88 100 100 66 77 63 53 52 52 64 55
49 44 57 64 42 27 29 28 31 36 43 59 90 91 64 76 98 95 84 73 69 66 59 58 51 41 41 46 39 39 42 42 52 58 55 39 33 47 93 100 90 68 58 56 62 71 59 54 72
56 57 67 64 56 35 24 39 62 53 43 70 100 98 100 100 99 98 89 89 77 71 56 48 40 36 35 31 30 29 33 26 26 44 62 64 52 39 30 40 43 37 46 47 51 61 69 68 65
60 66 70 48 48 42 26 25 42 40 46 58 74 90 98 99 100 90 98 96 64 43 42 58 56 52 56 45 35 29 29 30 30 29 29 56 73 59 45 35 30 30 29 28 33 43 59 76 80
100 76 69 55 45 46 34 30 24 27 40 38 46 53 64 73 77 81 67 55 53 57 60 63 64 51 43 42 41 41 34 34 35 39 40 33 42 84 79 66 50 38 32 30 30 34 40 61 84
63 68 63 56 46 56 45 34 25 25 32 43 36 42 49 60 77 73 70 67 79 81 88 64 59 53 52 52 57 54 33 33 39 54 62 52 53 42 55 98 100 100 70 47 37 31 35 40 81
99 100 85 57 57 62 51 43 34 34 29 32 40 55 59 78 71 60 53 47 49 52 58 66 79 79 70 67 68 75 58 52 38 36 37 55 65 73 56 50 69 100 100 100 99 93 45 48 48
80 100 99 74 72 69 53 53 45 50 50 42 52 48 48 62 68 74 80 85 94 100 92 100 100 99 66 54 48 44 38 37 36 36 32 40 48 57 68 76 74 76 92 100 100 100 99 100 79
86 96 100 99 99 71 60 62 52 59 55 56 44 42 51 67 81 94 92 100 100 100 100 100 99 77 73 78 69 49 36 37 40 35 36 33 53 61 46 67 82 86 82 98 100 100 96 100 97
62 100 100 100 98 85 70 75 73 73 75 74 68 78 68 62 66 71 95 100 100 100 100 92 81 74 63 59 33 36 42 50 39 38 45 52 54 66 55 53 65 90 100 98 97 88 99 100 100
63 100 100 100 71 79 83 89 96 78 65 94 100 100 94 83 87 100 92 84 84 76 66 68 60 41 31 35 43 58 48 59 58 49 48 62 62 62 62 48 79 96 99 100 100 80 75 88 100
76 100 100 100 72 91 100 100 100 90 100 98 88 92 75 64 81 100 100 100 78 62 55 46 40 35 31 32 57 74 59 55 43 42 46 55 56 50 53 40 56 56 56 86 100 100 100 100 95
77 100 100 99 99 100 100 100 98 98 100 100 93 99 96 90 76 71 71 60 58 47 43 45 36 32 39 57 58 70 74 77 78 72 73 82 86 65 49 54 45 44 40 71 96 100 100 100 95
65 64 99 100 100 100 95 100 77 85 96 100 100 100 93 93 89 81 77 69 67 62 56 48 39 39 46 53 74 94 72 62 54 76 81 82 100 61 50 43 41 35 30 26 60 95 100 100 89
96 85 100 100 100 86 92 70 92 79 88 100 100 88 92 99 90 72 52 36 38 34 41 41 45 41 48 62 74 98 73 72 99 76 77 100 100 100 60 82 62 47 41 29 30 50 93 100 100
100 100 92 98 100 88 100 91 100 98 92 84 72 50 38 38 34 30 28 27 26 41 55 51 42 45 63 98 100 100 100 96 99 100 94 98 100 97 88 78 91 82 79 62 32 34 43 91 100
79 85 81 89 100 100 100 100 100 100 99 65 55 46 36 26 31 33 37 30 38 54 49 45 55 60 77 100 100 97 95 100 100 97 100 100 100 89 99 97 88 82 92 87 77 50 43 43 90
99 100 100 100 100 100 100 100 100 99 68 68 67 57 43 34 34 32 37 33 57 84 60 65 71 80 96 86 86 100 100 100 100 100 100 100 100 99 97 100 100 90 95 87 86 73 46 30 48
100 100 97 86 98 100 100 88 93 87 90 84 70 46 34 36 34 38 35 48 66 69 88 100 100 100 100 100 100 100 100 99 96 100 100 95 89 75 91 100 100 100 99 92 88 80 59 43 39
100 100 100 100 93 92 93 100 100 89 90 67 50 36 31 30 31 34 68 69 95 100 100 100 100 100 100 100 97 85 97 99 99 96 100 100 100 85 83 88 93 82 100 100 98 67 46 36 28
80 82 76 85 91 98 100 100 100 93 85 59 34 26 29 29 49 81 94 100 100 100 100 100 100 100 100 89 84 86 97 93 100 100 77 50 48 44 45 56 66 65 57 67 80 79 63 38 27
75 83 78 84 98 83 100 89 77 49 41 35 35 26 33 64 87 87 100 95 82 100 98 98 99 74 70 75 82 92 97 74 58 46 35 28 31 28 25 23 28 31 37 27 33 44 46 51 21
Wind_Speed
39 41 38 38 36 36 33 40 43 40 39 38 37 36 37 33 29 21 37 35 40 38 34 32 33 36 33 32 33 32 26 22 21 24 23 23 20 21 22 24 23 25 28 27 26 26 26 25 26
41 40 38 39 39 37 32 36 36 38 41 41 40 36 35 34 32 23 28 31 36 36 31 29 30 33 31 29 26 30 27 28 28 24 21 21 21 25 27 28 28 26 25 26 27 27 27 24 24
40 37 35 35 29 32 33 35 38 42 41 43 42 33 32 34 27 25 28 28 30 33 27 26 29 30 27 24 23 25 24 23 23 23 25 25 25 29 32 32 31 33 29 25 27 27 26 26 24
37 35 37 36 34 38 38 41 41 39 41 41 38 32 36 33 23 27 26 25 31 29 24 23 26 28 28 26 26 27 27 25 27 31 30 31 33 33 34 34 37 34 33 28 26 29 29 28 28
36 37 39 35 38 40 43 42 40 40 38 38 37 38 38 26 29 25 26 23 28 26 25 20 21 26 25 27 25 22 28 32 28 33 35 32 34 37 39 36 37 36 33 29 27 28 31 29 27
40 40 38 38 40 43 45 42 39 35 35 36 35 34 25 29 28 25 23 24 28 27 28 24 18 22 23 20 24 26 30 32 31 32 34 36 39 40 41 37 37 38 35 29 26 28 30 30 29
36 34 37 39 38 41 43 41 32 26 30 33 34 26 28 30 29 25 25 23 27 29 30 25 21 18 20 25 29 27 28 30 33 36 36 34 36 34 36 38 40 38 38 34 28 27 28 30 31
35 36 37 37 41 40 41 35 24 24 25 31 27 30 29 29 28 24 25 24 25 29 30 28 28 25 19 21 24 27 29 34 37 39 38 37 34 35 35 35 40 36 36 35 33 30 28 30 31
35 41 39 42 44 37 41 35 21 22 25 31 33 29 27 31 32 25 23 27 29 28 30 31 31 31 27 25 24 25 26 28 29 31 32 31 31 29 31 37 42 39 38 35 33 30 27 31 33
36 39 43 44 37 35 39 35 24 20 20 24 28 28 32 35 31 25 28 31 29 30 31 31 30 32 32 33 33 33 32 33 33 34 34 33 31 31 34 34 43 38 34 31 29 28 29 29 33
38 41 43 46 39 36 35 33 31 25 24 22 31 33 37 37 32 32 35 33 33 35 37 33 33 35 31 30 32 35 35 34 35 37 35 33 35 36 33 34 35 33 30 31 29 29 29 32 31
42 44 46 43 39 37 34 34 34 35 30 28 30 33 35 33 34 36 37 36 38 36 33 37 34 33 31 34 34 30 30 29 32 36 38 35 34 33 33 36 34 34 34 32 30 29 29 30 32
45 48 48 43 40 37 35 34 36 35 30 32 26 26 30 33 36 39 40 40 37 34 36 37 33 32 34 32 32 29 27 30 32 34 33 33 36 35 34 36 38 36 35 35 38 35 31 30 32
44 46 47 46 40 39 37 35 34 34 34 33 33 32 33 35 35 38 40 41 41 39 37 35 33 36 34 33 37 36 35 37 34 35 36 37 33 38 40 37 34 48 43 43 43 43 42 37 33
48 49 49 45 42 40 36 37 34 35 36 35 39 39 38 39 39 42 43 41 39 37 38 38 42 44 44 48 44 41 48 42 40 40 42 42 38 39 40 45 46 50 50 41 45 44 48 44 39
47 50 50 48 46 41 38 39 35 40 38 38 38 37 38 39 41 45 47 47 46 43 44 42 43 43 47 49 51 46 45 47 48 47 44 46 45 41 39 43 46 51 50 51 52 46 49 48 42
49 51 53 52 47 42 41 42 37 41 41 43 41 40 40 41 45 46 43 43 44 47 47 50 53 52 53 52 50 53 52 54 53 53 52 52 49 49 46 45 44 48 54 54 55 52 49 51 49
52 50 56 56 45 47 44 45 45 43 43 45 44 44 41 41 45 47 46 43 45 47 49 57 56 57 57 51 54 56 50 54 52 53 55 57 57 54 52 48 49 43 45 55 56 55 51 52 53
51 50 56 57 50 49 49 46 49 45 44 47 47 46 43 45 49 51 51 52 52 53 56 57 57 54 54 59 55 54 51 42 41 45 54 54 56 60 58 52 53 54 45 51 53 55 53 54 52
49 49 55 53 53 52 49 48 47 47 48 46 44 46 45 46 50 54 55 56 58 58 56 56 58 61 65 63 67 58 50 62 60 59 58 54 58 60 65 60 59 58 54 50 54 50 52 53 53
48 48 55 55 56 50 46 41 43 41 49 51 53 48 48 49 48 49 50 54 58 60 58 66 60 68 67 66 70 68 66 65 70 66 70 71 72 77 61 65 64 61 63 55 54 56 57 59 56
47 46 52 56 51 48 49 49 52 49 48 54 51 52 55 53 55 61 67 70 68 65 67 67 81 77 70 69 72 75 78 77 78 76 75 80 82 79 64 62 59 57 65 71 63 64 64 65 62
50 49 53 53 56 58 56 55 55 53 47 46 55 59 60 65 68 71 71 69 69 76 77 80 85 79 75 81 75 76 82 83 84 82 82 85 90 80 73 68 69 66 65 66 72 73 70 70 76
53 53 54 56 58 57 56 59 54 52 51 51 56 60 62 65 65 68 72 74 77 79 80 86 82 81 80 81 79 86 93 92 86 91 95 95 101 88 80 72 74 80 79 76 73 76 78 76 78
56 57 57 58 60 57 57 55 55 56 60 67 63 62 62 61 70 75 74 83 85 83 85 86 84 81 83 82 90 91 91 92 104 104 102 100 97 91 82 83 81 79 86 86 86 82 81 80 85
55 58 57 58 61 62 61 60 67 68 70 69 68 71 77 83 83 83 84 92 89 89 93 85 85 87 86 90 95 102 111 109 111 105 104 100 96 90 85 90 92 92 90 88 92 91 86 93 87
59 60 64 62 64 64 65 69 71 71 69 73 74 78 80 81 83 86 92 95 97 93 91 94 93 93 95 98 103 121 125 121 113 106 100 97 97 94 92 93 98 99 98 98 98 97 96 94 97
63 63 66 69 68 69 68 75 78 73 71 75 80 85 87 87 91 95 100 100 96 100 99 102 101 106 110 115 133 120 108 108 105 105 106 105 108 107 107 108 107 105 109 107 107 105 100 98 108
68 70 71 73 71 72 72 81 82 80 79 85 88 88 88 91 96 99 99 96 106 111 106 113 119 123 126 129 110 109 110 113 115 116 118 118 116 118 116 116 116 118 118 119 120 122 120 109 104
68 70 73 75 75 73 76 75 83 86 89 92 97 99 98 99 101 102 105 111 114 116 122 129 126 124 113 112 115 115 120 122 123 126 127 122 123 122 120 116 117 117 123 121 121 125 124 121 114
Wind_Direction
294 299 296 294 298 294 293 297 299 297 296 295 292 293 297 299 287 281 284 297 309 312 302 291 278 269 263 252 253 258 275 256 269 275 278 267 271 278 285 287 291 287 277 272 271 270 275 276 276
292 297 295 294 294 291 299 300 300 296 295 298 297 292 291 297 285 281 292 294 314 312 302 290 281 269 266 260 258 260 271 260 275 271 271 267 267 281 287 289 293 290 285 278 272 268 268 272 273
295 300 300 295 296 307 313 304 298 293 295 298 295 287 292 294 289 282 290 305 305 311 307 292 284 274 265 262 263 259 265 270 278 277 273 276 282 288 291 292 290 291 284 275 270 270 270 271 270
296 300 293 288 292 306 310 307 302 295 292 294 296 292 299 292 295 296 299 299 304 313 310 304 285 276 266 261 259 263 253 263 271 276 277 276 279 283 288 294 292 293 289 279 270 266 264 267 269
292 290 286 287 296 302 306 302 298 293 289 289 294 294 291 292 304 300 298 294 297 317 318 311 291 285 269 260 269 274 274 269 279 275 273 276 280 283 288 292 293 297 294 286 277 268 265 266 268
286 291 288 289 298 303 303 300 299 291 285 288 286 288 288 300 299 299 296 287 290 301 317 325 307 297 292 281 280 282 277 282 275 272 275 279 281 284 286 291 287 292 293 291 281 272 267 266 262
292 290 288 295 302 307 302 305 298 291 286 286 286 286 293 292 299 301 296 283 297 297 304 317 319 309 295 278 277 275 277 272 267 276 279 278 282 281 279 281 288 287 290 289 284 281 269 264 261
289 284 291 300 309 311 307 306 298 282 288 286 285 294 290 291 302 297 298 294 298 302 302 312 315 308 296 291 288 287 286 282 278 276 275 274 274 276 286 284 285 286 286 287 289 282 273 264 262
286 292 293 299 307 305 304 305 294 283 283 280 283 286 294 294 293 284 285 290 284 296 298 302 303 302 291 290 289 289 291 292 286 282 281 279 274 269 279 283 284 286 286 289 288 284 274 268 262
288 291 296 299 305 305 301 300 292 282 280 284 285 292 290 289 285 279 285 292 295 298 299 297 295 297 294 291 286 281 286 286 281 284 286 288 279 273 269 270 277 284 287 287 286 283 280 269 266
286 291 296 299 301 301 300 299 301 291 281 287 284 284 286 282 278 282 285 291 296 297 299 296 295 294 289 289 288 289 290 291 287 282 279 276 278 281 275 267 269 275 278 283 282 282 284 278 267
286 293 294 297 300 300 297 293 295 293 290 288 273 280 282 279 273 279 285 291 290 290 293 297 297 296 295 299 298 298 297 298 295 294 282 275 268 268 275 274 274 276 272 276 280 280 277 283 276
282 287 292 295 297 299 291 290 291 298 297 289 292 289 279 280 283 283 283 287 289 290 293 292 292 294 298 301 299 298 296 301 294 296 291 281 270 264 263 265 271 272 272 274 278 277 278 276 276
287 288 291 293 296 293 288 288 290 296 294 294 293 294 294 293 291 288 291 295 291 290 287 291 294 295 294 292 293 291 295 287 290 289 291 291 287 271 264 260 272 268 270 275 276 279 278 277 269
283 282 286 288 291 287 284 287 288 288 287 293 294 297 297 291 292 292 292 293 292 291 286 286 292 296 293 289 297 288 298 288 281 286 286 284 286 285 282 265 256 260 269 271 271 275 272 272 267
284 282 280 288 283 281 281 282 293 286 288 289 289 292 292 286 285 289 290 291 291 289 282 286 293 294 294 296 300 298 296 296 293 293 293 287 281 283 287 288 271 260 259 267 269 271 268 269 268
284 280 277 278 276 279 285 280 287 280 283 286 286 288 291 288 286 285 287 289 288 290 283 286 296 296 297 298 298 300 301 301 299 294 296 293 289 285 279 279 281 272 259 259 262 264 265 269 264
287 279 273 276 278 283 284 273 279 284 283 279 281 285 287 286 285 286 284 282 285 286 283 288 292 295 297 296 298 297 291 291 290 290 292 292 288 287 286 278 276 274 273 262 258 261 264 265 265
284 272 272 275 283 278 274 271 273 283 289 277 283 283 284 283 283 283 283 283 286 287 288 289 287 295 300 294 298 298 289 295 306 301 289 288 290 285 280 273 273 272 268 263 259 261 260 262 266
278 270 271 276 279 280 274 276 277 286 283 281 277 278 279 279 280 282 280 284 288 288 285 283 285 292 297 296 303 307 297 304 304 308 312 301 296 298 278 273 275 269 264 263 252 254 259 264 266
274 271 268 271 274 275 275 274 279 285 281 280 279 277 278 279 278 278 282 286 291 286 283 290 294 296 300 296 300 304 305 300 298 295 298 303 305 305 281 272 269 267 263 263 253 246 248 249 253
276 273 269 266 270 267 270 273 282 277 277 277 280 283 284 280 283 286 289 289 292 294 297 299 303 304 299 297 294 296 304 302 299 292 293 299 300 300 286 263 264 269 266 259 253 244 249 244 244
271 272 268 268 269 274 276 277 273 275 271 280 293 290 288 286 288 289 293 303 302 304 301 301 301 297 299 299 295 291 297 297 292 292 288 290 295 292 286 273 263 263 266 262 257 246 243 244 239
267 266 269 269 268 272 268 274 272 275 279 282 284 288 289 290 295 298 299 302 306 305 302 301 299 293 293 294 291 291 292 294 293 290 290 292 293 291 278 271 266 260 259 261 257 257 250 243 240
272 273 273 273 270 267 270 274 274 280 284 286 287 289 289 290 296 302 303 306 304 302 302 297 295 295 291 286 286 295 292 290 293 293 292 289 286 285 276 272 272 269 260 259 260 263 253 248 242
271 270 273 271 271 272 275 277 280 283 283 284 288 292 292 295 297 299 303 305 302 295 300 296 293 294 288 287 287 291 295 293 294 291 289 284 281 280 275 268 267 272 266 262 259 259 257 244 246
268 273 271 273 273 276 279 277 276 278 280 284 290 292 293 295 298 302 303 297 300 295 299 303 300 292 292 288 287 293 293 293 293 291 286 286 284 284 279 273 269 269 267 266 264 262 260 251 244
269 270 272 273 274 275 278 279 278 280 284 289 289 290 294 297 303 301 300 300 298 302 305 303 301 298 295 293 295 295 293 294 293 291 289 288 286 284 282 280 276 273 269 265 263 262 263 258 240
272 274 273 275 277 277 277 280 283 281 284 287 292 297 297 300 298 297 300 299 304 304 301 300 299 297 296 295 297 301 299 298 296 292 290 288 286 285 281 277 274 272 270 267 264 263 263 256 251
272 275 278 278 277 277 278 282 285 292 293 292 292 295 301 299 299 300 300 302 303 303 303 302 302 303 304 306 304 301 297 294 293 292 289 288 285 281 277 274 272 269 268 266 264 262 260 256 247